Wind_Speed
42 42 41 42 42 40 42 42 43 42 42 41 40 40 40 41 41 41 39 38 37 36 35 33 32 31 29 28 26 24 23 22 22 23 22 23 24 25 26 26 27 27 26 25 24 22 22 22 22 23 23 21 22 24 25 26 27 26 26 26 27 28 29 30 29 28 27 26 26 26 27 28 28 28 28 29 30 32 33 35 37 38 39 40 40
39 39 40 40 40 40 43 43 42 41 40 40 39 39 39 39 39 37 36 36 35 34 33 31 30 29 28 27 25 23 22 22 21 22 22 23 24 25 25 26 27 27 26 25 24 23 22 22 21 23 22 22 24 26 27 28 28 27 26 27 28 29 30 31 30 30 28 27 26 25 25 25 25 26 27 28 29 31 33 35 37 38 39 40 41
38 38 38 39 40 41 43 42 40 39 39 39 38 38 38 38 36 35 35 35 34 33 31 30 29 28 27 26 24 23 22 21 21 21 22 22 23 24 25 26 26 26 26 25 24 23 22 22 21 22 23 23 25 27 28 28 28 26 26 27 29 30 31 32 31 30 29 28 27 25 25 25 25 25 26 27 29 32 34 36 37 39 39 40 41
40 40 41 40 41 42 43 41 39 38 38 38 38 38 38 37 35 34 34 35 34 32 30 29 28 27 26 25 24 22 21 21 21 21 22 22 23 24 25 26 26 26 25 24 24 23 22 22 21 22 23 25 26 28 28 28 26 26 27 29 30 31 32 33 32 31 30 29 28 26 26 25 25 24 24 28 31 34 36 38 39 40 41 41 41
43 43 43 41 41 42 42 40 38 37 38 38 38 39 38 36 34 34 35 34 33 31 30 28 27 27 26 24 23 22 21 20 21 21 21 22 23 24 24 25 25 25 25 24 24 23 23 22 22 23 24 26 27 28 29 27 27 28 29 31 32 32 33 33 33 32 31 29 28 27 26 25 25 24 25 31 36 38 40 40 41 41 42 41 41
44 44 41 41 42 42 42 40 37 37 38 39 39 39 38 36 34 34 35 34 33 31 29 28 27 26 25 24 22 21 20 20 21 21 22 22 23 23 24 24 24 25 25 25 24 24 23 22 22 23 25 26 28 29 29 28 28 30 31 32 33 33 33 33 34 33 31 29 28 27 26 26 27 27 29 35 40 42 43 43 43 43 43 41 40
44 42 40 42 44 43 42 39 37 37 39 40 40 39 37 35 34 35 35 34 32 31 29 27 27 25 24 23 22 20 20 20 21 21 22 22 23 23 23 24 25 25 25 24 24 23 23 23 23 24 26 27 28 28 28 29 30 31 32 32 32 32 33 34 34 33 31 29 28 27 27 28 30 31 33 38 42 43 45 45 45 45 44 41 39
44 43 42 44 44 43 42 40 38 38 40 41 40 38 36 35 34 35 35 34 32 31 29 27 26 25 24 23 21 20 20 20 21 21 22 23 23 23 24 25 25 25 25 24 23 23 22 23 24 25 26 27 28 28 28 29 30 31 31 31 31 32 33 34 34 32 30 29 28 28 29 31 31 31 33 38 41 43 45 46 46 46 44 41 38
45 44 43 44 44 43 42 40 39 41 42 41 39 37 36 34 35 36 35 34 32 31 29 27 26 25 24 23 21 20 20 20 21 22 22 23 23 24 24 25 25 25 24 24 23 23 23 24 25 26 27 28 28 29 29 30 30 31 31 31 31 32 33 34 33 31 29 28 28 29 30 30 29 29 33 36 40 43 45 47 47 46 44 41 36
43 42 43 45 44 44 44 42 42 43 43 41 38 36 35 34 35 35 35 34 32 31 29 28 27 25 24 23 22 20 20 20 21 22 23 23 24 24 24 25 25 25 25 24 24 24 25 26 27 28 28 29 29 30 30 30 31 32 32 31 31 32 33 33 32 30 28 28 29 29 28 27 26 29 33 36 40 43 47 48 48 46 43 39 34
44 44 46 46 45 46 46 45 46 45 43 40 37 35 34 34 35 35 34 33 32 30 29 28 27 25 24 23 22 21 20 21 22 23 23 24 24 25 25 25 25 25 26 26 26 26 27 28 29 29 30 30 30 30 30 31 32 32 32 31 31 32 32 32 31 29 28 27 28 27 25 25 28 32 36 39 41 45 48 49 48 45 42 37 31
47 47 48 48 48 48 48 48 47 45 42 38 36 34 34 34 34 35 34 33 32 30 29 28 27 25 24 24 23 22 21 22 23 24 24 25 25 26 26 26 26 26 26 27 27 28 29 29 30 30 30 31 31 31 32 32 32 32 32 31 31 32 32 32 30 29 27 27 26 25 25 28 33 36 40 42 44 47 49 50 48 44 40 35 29
47 48 49 50 50 50 49 48 46 44 41 37 35 34 34 34 34 34 34 33 31 30 29 28 27 26 25 24 24 23 23 23 24 25 25 26 26 27 27 27 27 28 28 28 29 29 29 30 30 30 31 31 32 32 33 33 32 31 31 31 31 31 31 32 31 28 27 26 25 26 29 34 37 39 42 43 45 47 50 49 46 42 38 32 27
51 51 50 50 51 51 49 47 45 42 39 36 35 34 34 34 34 34 33 32 31 30 29 28 27 26 25 25 25 24 24 24 25 25 26 27 27 28 28 29 29 29 29 30 30 30 30 30 31 31 31 32 32 32 32 32 31 30 30 30 30 31 31 32 31 29 28 27 27 30 34 37 39 41 42 44 46 48 49 48 44 40 35 29 25
53 52 51 50 51 51 49 46 43 40 37 36 35 34 34 34 34 34 33 32 31 29 28 27 27 26 26 26 25 25 25 25 25 26 27 28 28 29 29 30 30 30 30 31 31 31 31 31 31 31 31 31 32 31 31 30 29 29 28 29 29 30 31 32 32 30 29 28 30 34 38 39 40 42 43 44 46 48 48 46 42 37 32 27 24
53 52 52 52 53 51 48 45 41 38 36 36 35 34 34 34 34 33 33 31 30 29 28 27 27 27 26 26 26 26 26 26 26 27 27 28 29 29 30 30 31 31 31 31 31 31 31 31 31 31 30 30 30 29 28 28 28 28 28 29 29 30 31 32 32 31 30 30 33 36 38 40 41 43 44 45 46 47 46 44 39 34 29 25 23
54 53 53 55 55 51 47 43 39 37 36 35 35 35 34 34 34 33 32 31 30 29 28 27 27 27 27 27 27 27 27 27 27 27 28 28 29 29 30 30 31 32 32 32 32 32 31 30 29 28 28 28 27 27 27 27 27 28 29 29 29 30 31 32 32 31 31 32 35 37 39 40 42 43 45 46 46 46 44 41 36 31 26 24 23
54 55 55 56 53 49 45 41 39 37 36 36 35 35 34 34 34 33 33 32 30 29 28 27 27 27 28 28 28 28 28 28 28 28 28 29 29 29 30 30 31 32 33 32 31 30 29 27 26 26 26 26 26 26 26 26 27 28 29 29 30 30 31 32 31 31 32 34 37 38 39 41 43 45 46 46 46 44 42 39 34 28 24 22 23
56 56 54 53 48 45 42 39 39 38 36 36 36 35 34 34 34 34 33 32 30 29 28 28 28 28 28 28 28 28 28 29 29 29 29 29 29 29 29 30 30 31 31 30 29 28 26 25 25 26 26 25 25 25 25 27 28 29 29 29 29 30 31 32 32 33 35 36 38 39 40 42 44 45 46 46 45 43 40 36 32 26 23 21 21
53 52 50 47 43 41 39 38 39 37 37 36 35 35 35 35 34 34 33 32 31 30 29 28 28 28 28 28 29 28 29 29 29 29 29 29 29 29 29 29 28 26 27 28 28 27 26 26 26 25 24 24 24 25 26 28 29 29 29 29 29 30 31 32 33 35 36 37 38 40 41 43 44 45 45 45 44 42 39 34 30 25 22 21 21
49 48 45 42 39 38 38 38 38 37 37 36 35 35 36 35 34 34 33 32 31 30 29 28 28 28 28 28 29 28 28 29 29 29 29 29 28 27 26 25 23 22 24 26 27 27 27 26 25 25 24 23 24 26 28 29 30 30 29 29 29 30 31 33 35 36 38 38 39 41 42 43 44 44 44 43 42 41 37 33 28 23 21 20 21
46 45 42 39 38 38 38 38 38 38 37 36 36 36 36 35 34 34 33 32 31 30 29 28 28 28 28 28 28 28 28 28 29 28 27 27 24 22 21 20 21 21 22 24 27 28 28 27 25 24 24 24 27 28 29 30 30 31 30 31 31 32 33 35 36 37 38 39 40 42 44 44 44 44 43 42 42 39 35 31 26 22 21 20 20
44 43 40 39 38 38 38 38 39 38 36 36 36 35 36 35 34 34 33 33 32 31 30 29 28 28 28 28 28 28 28 28 27 26 25 24 20 20 21 21 23 21 19 21 25 27 27 26 25 24 25 27 29 30 31 32 32 32 32 33 33 35 36 37 38 38 39 40 41 44 45 44 43 43 42 41 40 37 33 30 25 21 20 20 20
42 40 39 39 39 39 38 39 39 38 37 36 36 35 35 35 35 35 34 33 32 31 31 30 29 29 28 28 27 27 28 28 26 25 24 22 20 20 20 21 23 20 18 20 23 25 27 27 27 27 28 29 30 32 33 34 34 34 34 35 36 36 37 38 38 39 40 42 43 44 44 43 43 43 42 40 38 35 32 28 23 20 19 19 19
41 40 39 40 39 39 38 38 38 38 37 36 36 36 36 36 36 36 35 34 33 33 32 31 30 29 28 27 27 27 27 27 26 24 21 20 20 21 21 21 23 22 21 22 23 25 26 28 29 30 31 32 33 34 35 36 36 36 36 37 37 37 37 38 38 39 42 43 44 43 42 42 43 43 41 39 36 32 30 27 23 19 19 18 18
41 41 41 40 39 38 37 37 37 37 37 36 37 37 37 37 37 37 36 35 34 34 33 32 31 30 28 27 27 27 27 27 25 22 20 21 21 22 23 23 24 26 25 24 26 28 26 27 29 31 33 36 37 38 38 39 38 38 37 37 37 37 38 39 40 42 43 44 43 41 41 42 42 42 40 37 33 30 28 26 22 19 18 18 18
42 42 42 40 38 37 37 36 36 36 37 37 38 39 38 37 37 37 37 36 35 34 34 32 31 30 28 28 28 27 26 26 24 22 22 23 23 24 24 24 26 29 29 28 29 31 30 29 31 34 36 38 38 38 38 38 38 38 37 38 38 39 40 41 42 43 43 43 42 40 41 42 42 40 37 35 32 29 25 24 22 20 19 18 18
42 42 42 40 38 36 35 35 36 36 36 36 36 35 34 33 32 33 34 34 33 33 33 31 29 29 28 27 27 26 26 25 25 25 25 25 25 26 26 25 27 30 32 32 32 32 33 33 35 37 38 38 38 37 37 38 38 38 39 39 39 39 41 42 44 45 44 43 42 42 43 43 43 40 35 32 31 28 25 22 21 19 19 19 18
44 43 41 38 36 35 35 36 34 32 30 29 30 30 29 29 28 29 30 31 31 31 31 30 28 28 27 26 25 24 24 24 25 26 27 28 29 29 29 28 29 31 34 35 34 32 34 35 38 39 38 40 40 39 39 40 40 40 40 39 39 41 43 46 47 46 44 43 43 44 43 43 43 40 34 30 29 27 25 22 20 19 19 19 19
44 42 39 36 35 34 33 30 27 25 25 28 30 30 30 30 29 28 29 29 28 28 28 27 26 26 25 23 23 22 22 24 25 26 28 31 32 31 31 32 33 35 37 38 36 34 36 38 39 39 40 41 41 40 41 42 42 42 42 41 44 46 47 48 48 46 45 44 46 47 45 43 41 39 34 29 27 27 26 24 22 20 19 19 19
44 41 37 35 33 29 25 21 21 24 28 30 30 32 32 30 29 29 29 27 26 27 26 25 26 25 23 22 23 23 24 26 27 28 30 31 31 32 34 33 35 37 37 36 35 35 38 40 40 41 45 46 45 45 46 46 45 46 46 48 50 49 48 49 47 47 46 46 47 48 46 44 41 38 35 30 26 26 27 27 24 21 19 19 19
42 38 35 33 29 23 20 19 21 25 28 29 30 33 32 29 30 30 27 26 28 29 27 25 25 24 22 23 24 24 26 28 30 31 31 31 31 34 34 33 36 38 37 36 36 39 41 44 45 46 48 48 48 48 48 48 48 48 49 50 50 49 49 50 50 50 49 48 48 47 46 44 41 37 34 32 28 27 27 27 27 23 20 20 20
39 37 35 33 28 22 19 18 20 24 24 25 25 24 25 28 31 28 25 27 29 29 26 24 23 23 24 24 24 25 28 31 32 33 32 33 34 34 34 34 37 38 38 39 40 42 44 45 46 47 48 47 48 49 49 49 49 51 52 51 51 51 53 54 54 53 52 51 49 47 45 42 40 36 33 32 31 29 28 27 28 25 22 21 22
37 36 33 30 27 22 18 15 15 16 14 13 13 13 19 26 28 25 24 25 26 26 25 23 22 23 24 24 25 27 30 31 32 33 34 35 36 36 36 37 38 36 37 39 38 41 44 44 45 46 47 47 48 49 50 51 52 55 56 56 56 56 56 55 55 54 52 51 48 46 44 41 40 36 32 32 32 31 29 28 27 26 24 23 23
38 36 32 28 24 21 20 18 17 15 12 10 11 13 15 17 19 23 27 26 25 27 26 24 24 24 24 25 28 30 31 32 33 35 36 37 38 38 39 39 39 38 39 40 41 43 45 45 46 47 47 46 46 48 50 53 54 56 56 57 56 56 55 54 53 52 50 49 47 45 42 39 37 35 34 32 32 33 31 28 28 27 26 25 25
43 40 36 30 25 24 25 25 23 23 21 18 15 13 12 11 13 18 25 25 24 27 25 25 25 24 25 28 30 31 31 32 35 38 39 39 40 39 40 40 39 39 40 42 43 46 47 47 47 46 45 45 46 49 52 54 55 55 55 54 54 53 52 51 50 49 47 46 44 42 39 36 34 34 35 35 33 33 31 29 28 28 27 27 28
41 40 38 32 27 27 25 24 23 22 22 19 16 15 13 13 14 15 17 17 19 25 25 26 25 24 27 29 30 31 31 34 38 40 41 41 42 41 40 39 40 41 42 44 46 48 48 48 47 46 46 46 48 51 56 57 56 55 54 53 52 52 51 50 48 46 44 42 39 38 36 34 33 32 34 36 35 34 32 30 28 27 27 29 31
38 36 36 32 30 29 26 27 26 24 24 21 19 20 19 17 19 18 15 14 14 21 26 26 24 25 28 29 31 33 34 37 41 42 43 44 44 43 41 40 41 44 45 47 48 50 49 48 47 46 47 48 50 54 59 60 58 56 54 52 51 51 50 49 47 45 42 39 36 35 35 34 33 32 33 36 37 36 35 33 30 27 26 29 30
44 41 39 35 33 32 32 32 30 26 25 24 21 23 23 21 23 22 20 18 16 23 30 28 26 28 31 32 33 35 38 41 44 45 46 46 45 43 42 42 44 47 48 49 50 51 50 49 47 47 49 50 52 58 63 62 59 57 54 52 51 50 49 47 45 44 41 38 36 34 34 33 33 32 33 35 37 38 36 35 34 30 26 27 29
48 45 42 39 35 35 36 35 30 26 26 26 23 24 26 25 25 22 18 17 21 30 34 32 32 35 36 37 38 40 44 46 48 49 48 47 46 44 44 45 47 49 51 51 51 52 51 49 48 51 53 52 56 64 66 64 61 58 55 52 50 49 48 46 44 42 40 38 35 34 33 33 33 33 34 35 36 38 37 35 35 33 28 28 29
50 47 44 41 36 35 37 35 32 29 28 29 26 25 27 29 27 22 17 19 29 37 39 37 38 41 41 43 45 46 48 50 51 51 49 48 46 46 47 48 50 51 52 52 52 53 52 51 52 54 55 57 63 68 67 65 62 59 56 53 51 49 48 47 44 42 39 37 35 34 33 33 33 33 34 34 35 36 37 37 36 35 32 30 29
51 50 46 44 40 36 36 35 33 31 31 32 30 27 28 31 30 27 25 28 37 43 43 42 44 45 46 49 51 50 50 52 53 51 50 49 48 48 50 51 52 53 53 53 54 54 54 54 56 57 60 65 69 69 68 67 63 60 57 54 52 49 47 46 44 42 39 37 35 34 33 33 34 35 35 34 34 34 36 37 37 37 36 34 31
50 49 48 47 45 40 38 36 35 34 34 35 34 30 30 34 33 31 31 32 39 43 44 45 47 48 51 54 53 51 52 54 53 52 52 51 51 51 52 53 53 54 54 54 55 56 57 58 60 64 69 73 73 71 70 68 64 61 58 55 52 49 47 45 44 42 40 38 35 33 33 33 33 35 36 36 35 36 36 37 37 38 38 38 36
50 49 47 44 43 42 40 37 37 37 36 36 37 34 33 37 37 35 32 32 38 42 44 47 49 51 54 54 53 54 55 55 54 54 54 53 53 53 54 54 54 54 54 55 56 58 60 62 66 71 75 76 74 73 72 69 65 61 58 55 52 49 47 45 45 43 40 38 37 34 33 33 33 34 35 36 36 37 37 37 37 38 40 40 40
50 49 48 43 41 42 40 39 38 37 36 36 37 37 37 40 41 39 36 35 39 44 47 50 52 54 55 54 56 58 57 56 55 54 53 53 53 53 54 55 55 55 56 58 60 61 64 68 73 76 77 77 77 76 73 70 66 62 59 55 51 48 46 44 43 44 42 39 37 36 33 33 34 34 35 35 36 36 37 37 37 38 40 42 42
49 50 51 45 40 41 41 40 39 37 36 35 35 36 38 41 41 40 42 42 44 47 49 51 53 55 56 58 60 59 57 56 54 53 52 52 53 54 55 55 56 57 59 61 64 67 71 75 78 78 78 78 78 77 75 72 68 64 59 54 50 47 45 44 42 43 44 41 37 36 35 34 34 35 35 36 36 36 37 37 37 37 39 42 43
47 49 51 46 40 40 41 39 38 37 38 38 38 36 35 37 37 39 42 44 46 48 51 52 54 57 60 61 60 58 57 55 53 53 52 53 54 55 56 57 59 61 63 66 69 73 77 79 80 80 80 79 77 76 74 72 69 65 60 55 50 46 44 43 41 40 43 44 41 37 35 36 36 36 36 37 37 38 38 37 37 38 38 40 43
47 48 49 46 41 41 42 40 38 38 39 41 41 38 35 36 38 40 43 44 46 49 52 55 58 62 62 60 58 57 56 54 53 53 53 55 56 57 59 61 63 65 68 71 75 78 81 81 82 81 80 78 76 74 72 70 67 63 59 55 51 48 44 42 41 39 39 42 45 42 38 36 37 38 38 38 39 39 40 39 39 38 38 39 41
48 48 48 47 43 42 43 43 42 41 40 40 41 40 39 39 39 41 43 45 48 52 56 59 61 60 58 57 56 56 55 53 53 53 55 57 59 61 63 65 68 71 74 77 80 83 83 83 83 81 79 77 75 73 71 68 64 61 58 55 52 49 47 44 41 40 38 39 42 45 44 40 39 39 38 40 41 40 41 41 40 39 38 39 39
49 50 50 49 47 44 44 44 43 43 42 41 41 42 42 41 40 41 44 47 52 55 58 59 57 55 55 55 55 54 54 54 54 56 58 60 62 64 67 70 73 77 80 82 84 85 84 83 82 80 78 76 74 72 69 66 62 59 57 55 53 51 49 47 44 42 40 38 39 42 45 45 44 42 40 40 42 43 43 42 42 41 39 40 39
49 52 53 53 52 49 47 46 44 44 45 43 43 43 43 43 44 47 50 53 55 56 56 55 54 54 55 55 55 55 55 56 57 59 61 63 65 68 72 75 79 82 84 85 86 85 84 82 81 79 77 75 73 70 67 64 61 59 57 55 54 52 51 49 47 45 43 40 39 40 42 44 46 47 45 43 43 44 44 44 43 43 42 42 42
Wind_Direction
285 285 287 289 291 295 297 296 297 300 301 301 301 301 302 302 302 302 302 301 300 299 299 299 298 297 294 290 286 282 279 279 280 282 284 287 289 289 289 289 289 290 293 295 296 298 300 304 303 300 298 298 303 309 310 311 310 310 312 316 320 323 325 326 324 319 312 303 296 289 285 284 285 287 290 292 294 296 297 297 297 295 294 292 291
285 284 286 287 291 296 297 296 297 299 301 301 302 303 304 305 304 304 304 303 301 300 300 300 299 297 293 289 285 282 279 278 279 280 282 285 288 289 289 290 290 291 293 294 295 297 300 302 301 298 295 296 301 306 309 310 309 308 311 315 319 322 324 325 325 321 314 306 299 293 289 287 288 291 294 298 301 303 303 303 302 301 299 296 293
283 283 287 289 293 297 296 296 297 300 301 302 305 306 307 307 306 306 306 305 303 302 302 301 300 297 293 289 285 282 280 279 278 279 281 284 287 289 290 291 292 293 294 295 296 297 300 301 300 296 293 295 299 303 306 308 308 308 312 316 319 322 323 324 324 321 315 307 300 294 289 288 290 294 299 304 306 307 307 306 305 305 304 301 296
280 283 290 292 295 297 297 297 299 301 303 306 308 309 310 309 308 308 308 306 304 303 303 302 300 297 293 289 285 282 280 279 279 280 282 285 287 289 290 292 293 294 294 295 296 298 299 299 298 295 293 295 298 301 305 306 306 309 313 316 319 321 322 322 322 319 313 307 300 294 290 290 293 295 302 309 311 311 311 310 308 308 307 304 299
280 285 290 293 295 297 298 299 301 303 307 309 311 311 311 310 310 309 308 306 304 304 303 302 299 296 292 288 285 282 280 280 281 282 284 286 288 290 291 292 293 294 295 295 296 298 299 298 297 294 293 295 298 301 304 304 306 310 313 316 318 320 321 321 320 317 312 306 300 294 293 293 292 292 301 311 314 315 315 315 313 311 310 306 301
284 286 290 295 297 298 301 302 303 306 310 312 312 312 311 311 310 310 307 305 304 304 303 301 298 295 291 288 285 283 282 282 283 285 287 289 290 291 292 293 294 295 296 296 298 300 300 298 296 293 293 295 298 302 303 303 306 310 313 315 318 319 320 320 318 316 312 306 300 296 297 296 293 292 300 310 314 316 317 317 317 314 312 308 301
285 286 292 296 297 299 302 305 306 309 312 312 312 311 311 311 311 309 306 304 304 304 303 300 297 294 291 288 286 285 285 285 286 288 289 291 292 292 293 294 295 296 298 299 300 301 301 299 296 295 295 296 299 302 303 304 308 312 315 317 318 319 319 319 318 316 311 306 302 301 301 300 297 296 302 310 314 317 318 318 318 316 313 308 301
282 287 294 295 298 301 303 306 308 311 311 311 310 311 311 310 310 308 305 304 304 303 301 298 295 294 291 289 287 286 286 287 288 289 290 291 292 293 294 295 297 298 300 302 302 302 301 299 297 297 297 298 301 303 305 307 310 315 318 319 319 319 319 319 318 315 311 307 304 303 303 302 303 305 307 312 316 319 320 320 319 317 313 308 299
282 288 293 296 299 301 305 307 309 311 310 309 309 309 309 309 308 306 304 304 303 302 300 296 295 294 291 290 288 287 287 288 289 290 290 292 293 294 295 296 298 299 301 303 303 302 300 299 299 299 299 300 302 304 306 309 313 317 319 319 318 317 317 318 318 314 310 307 305 305 305 305 308 311 314 317 321 323 324 322 319 317 313 306 297
286 289 293 298 300 302 306 308 309 309 307 307 307 308 307 308 307 305 304 303 302 300 298 296 295 293 291 289 288 287 287 289 290 290 291 292 294 295 296 297 298 300 301 302 302 301 300 300 300 300 301 302 304 305 308 310 314 317 319 318 316 315 316 317 316 312 308 306 306 307 307 308 311 314 317 321 324 326 325 323 320 316 312 304 295
288 292 294 298 301 303 306 307 307 306 305 305 305 306 306 306 305 304 303 302 301 300 298 296 294 292 291 290 289 288 288 289 290 291 292 293 294 295 296 298 299 300 301 301 301 301 301 301 301 301 302 303 305 306 309 312 314 317 317 316 314 313 313 315 313 309 306 306 307 307 309 311 313 315 317 320 323 325 325 323 320 316 311 302 294
288 292 294 298 302 303 304 304 305 304 303 302 303 304 304 305 304 302 302 302 301 299 298 296 294 292 291 291 290 290 290 290 291 292 292 293 294 295 296 298 299 300 300 301 301 301 302 302 302 302 303 304 305 307 309 312 314 315 315 314 311 311 311 312 311 307 306 306 306 307 310 313 314 314 315 317 320 323 324 323 320 316 309 299 294
287 290 293 296 299 301 302 302 302 301 301 301 302 302 303 303 302 302 302 301 300 299 298 296 294 293 293 292 292 292 292 292 292 293 293 293 294 295 297 298 299 300 300 300 301 302 302 303 303 303 304 305 306 307 309 311 312 313 313 312 310 309 309 310 309 306 304 304 305 309 313 315 315 314 315 317 319 322 323 322 320 316 308 296 294
285 288 292 295 296 298 299 300 300 299 299 299 300 301 302 302 301 301 301 301 301 300 299 297 295 295 294 294 294 294 294 294 294 294 294 295 295 296 297 298 299 300 301 302 302 303 303 303 304 304 305 305 306 307 308 310 311 311 311 310 309 307 307 309 308 304 303 303 305 311 315 315 316 316 317 317 319 321 322 322 319 315 306 294 296
285 288 291 293 295 297 299 299 298 298 298 298 300 301 302 301 301 300 301 302 302 301 299 298 297 296 295 295 295 295 295 295 295 295 295 296 296 297 298 299 301 301 302 303 303 303 303 304 305 305 306 306 307 308 309 310 310 310 309 308 306 305 306 307 306 303 301 303 307 313 316 316 317 317 318 318 320 321 322 321 319 314 303 293 298
286 288 290 291 294 296 298 297 296 296 297 298 300 300 300 300 300 300 301 302 302 301 300 299 297 297 296 295 295 295 295 295 296 297 297 297 298 298 299 301 302 303 304 304 304 304 304 305 305 306 306 307 308 309 309 309 309 310 309 307 305 304 305 306 306 303 302 305 310 314 316 317 317 317 318 319 320 321 322 321 318 313 300 292 299
286 288 288 291 292 294 296 295 294 295 296 298 299 299 299 299 300 301 301 302 302 302 300 299 298 297 296 295 295 295 295 296 297 298 299 299 300 300 301 303 304 304 305 305 304 304 305 306 307 307 307 308 309 309 308 307 308 309 308 306 304 303 305 306 306 305 305 308 312 315 316 317 317 318 318 319 319 321 322 320 318 311 296 292 300
284 284 287 290 291 292 293 293 294 296 297 299 299 299 299 299 300 300 301 302 302 302 301 299 297 296 295 295 296 296 297 298 299 299 300 300 301 302 302 303 304 304 304 304 304 305 306 307 307 307 308 308 308 307 307 307 307 309 308 306 304 304 306 307 307 307 309 311 313 314 316 317 318 318 318 319 320 321 322 320 317 308 293 291 300
282 283 286 289 289 291 292 293 296 297 298 300 299 299 299 300 300 300 301 302 302 301 300 298 297 296 295 296 296 297 298 299 300 300 301 301 303 303 303 303 303 303 304 305 305 306 307 307 307 306 307 307 307 308 309 308 308 309 308 306 305 305 306 307 308 309 310 312 313 314 316 317 318 318 319 320 321 322 322 319 316 307 290 289 297
283 284 286 287 288 290 292 294 296 297 298 300 299 299 299 300 300 301 301 301 302 301 300 298 297 296 296 296 297 298 299 300 300 301 302 303 304 304 303 303 303 306 308 309 308 307 306 305 305 305 306 306 309 311 311 311 310 310 309 307 305 305 306 306 308 308 309 311 313 315 316 317 317 318 319 321 322 322 321 318 315 306 289 288 295
282 285 287 288 288 290 293 294 295 296 298 299 298 298 299 300 301 301 301 302 302 301 300 298 297 296 296 296 297 298 299 300 301 302 304 306 307 306 306 305 307 313 317 316 312 310 308 305 303 304 305 308 311 312 312 312 311 311 310 307 306 304 304 305 306 307 308 311 313 315 316 316 317 318 319 321 321 322 320 317 314 303 289 288 294
282 284 286 288 290 291 292 293 294 295 296 297 298 299 300 301 301 301 301 301 300 300 299 297 296 296 296 295 296 298 299 300 300 303 306 308 310 313 315 312 312 316 319 320 318 315 310 305 304 306 307 308 310 311 312 312 311 311 309 307 305 304 303 304 305 306 307 310 313 314 315 316 317 319 320 321 321 321 318 315 313 300 288 289 293
282 283 286 288 289 291 291 293 293 294 295 296 297 298 299 300 300 300 299 299 299 299 298 296 296 296 295 295 296 298 298 298 300 303 308 308 310 317 320 315 312 314 315 318 321 320 315 310 307 307 308 308 309 310 311 311 311 309 307 305 304 303 303 303 304 306 307 310 312 314 314 315 317 320 321 321 321 320 316 313 311 298 288 289 293
280 283 285 286 288 290 292 293 293 294 294 295 296 297 297 298 298 297 298 298 299 299 297 296 295 295 295 296 297 297 297 298 301 305 309 306 307 316 316 311 309 310 309 309 312 312 311 310 307 309 310 309 309 310 310 310 309 308 306 304 303 303 303 303 304 305 308 310 312 313 314 316 318 321 321 321 320 319 314 312 309 296 288 289 292
280 282 283 286 287 289 291 292 292 293 293 294 294 295 295 296 296 296 297 297 298 297 296 296 295 294 295 296 296 295 296 298 303 306 306 302 306 313 311 306 305 305 307 308 310 309 304 300 301 308 312 312 311 311 311 310 309 308 306 304 303 302 302 304 304 305 308 310 311 312 314 316 318 320 319 319 320 318 314 312 308 295 288 289 291
282 282 284 287 288 289 290 290 291 291 292 293 294 295 296 296 297 297 297 297 297 296 296 295 294 294 294 294 293 294 296 299 303 304 301 298 303 307 303 300 301 302 305 310 312 311 302 293 296 304 308 311 312 310 310 308 307 307 306 305 303 302 303 304 305 306 308 310 311 312 314 316 317 318 318 318 319 317 314 313 307 295 288 288 290
283 283 285 287 287 288 289 289 290 291 293 295 296 297 297 297 297 297 297 297 296 296 295 295 294 294 294 293 292 294 296 299 301 302 299 298 301 301 295 294 296 298 301 306 308 306 299 294 296 300 304 307 310 310 310 309 307 306 306 304 303 302 303 305 306 307 309 311 312 313 316 316 316 317 317 315 316 315 314 315 308 295 289 289 289
283 284 286 287 287 288 289 290 292 295 298 299 299 299 300 300 299 298 297 296 295 294 294 296 295 294 293 292 292 294 297 299 302 304 302 301 303 302 298 293 293 295 298 303 306 303 297 297 299 300 302 305 307 307 308 309 307 305 306 304 302 302 304 306 308 309 309 311 313 314 316 317 316 317 316 314 313 311 311 314 310 297 290 290 290
283 284 286 285 286 288 291 294 296 300 303 304 306 307 307 304 302 299 295 294 294 293 294 295 295 294 293 292 293 294 296 299 302 304 304 304 304 304 303 297 293 294 296 301 305 303 298 300 302 301 302 304 305 304 304 305 303 302 303 302 301 301 303 305 306 308 308 310 313 313 313 315 314 314 314 312 314 312 309 313 311 300 290 290 291
283 283 283 283 285 291 296 299 301 307 312 314 315 313 308 302 298 293 291 292 292 291 293 294 294 294 292 291 293 293 295 301 304 304 304 304 304 303 303 300 298 297 299 301 301 299 297 301 303 301 302 304 304 304 304 304 301 300 298 297 299 299 299 302 303 305 307 308 309 309 310 311 309 309 308 308 312 311 307 309 310 304 292 287 290
280 280 280 281 287 293 298 303 310 317 319 317 314 310 304 297 295 292 292 294 293 290 291 292 293 293 290 289 291 291 296 301 304 304 303 304 303 304 304 303 302 303 304 304 302 299 298 300 300 299 301 302 303 303 303 301 299 298 297 297 299 299 299 301 302 303 305 304 305 305 306 306 303 302 301 299 302 301 297 298 301 303 297 288 289
278 279 278 279 283 290 297 307 318 322 319 314 311 308 303 300 302 300 297 297 294 291 289 288 287 285 283 283 284 286 294 299 301 303 304 304 304 305 306 303 303 304 305 305 304 303 300 300 300 300 302 303 302 303 302 302 300 299 300 300 299 299 301 302 301 302 302 302 302 302 301 301 298 296 292 287 287 287 286 287 290 294 297 292 290
280 279 279 276 272 277 296 313 321 320 318 317 316 311 303 306 311 307 299 295 292 289 287 285 281 277 275 275 276 283 293 298 300 303 305 305 305 306 304 302 303 304 304 303 303 302 301 301 301 301 302 303 304 304 305 305 304 304 304 303 300 299 299 299 299 299 299 299 300 300 299 298 296 294 287 278 275 278 281 281 282 286 290 289 288
279 278 278 276 267 268 289 303 306 310 316 319 309 293 294 308 314 308 298 291 288 288 285 280 276 274 273 272 277 286 294 298 300 303 305 306 307 306 304 302 303 302 301 300 301 301 300 301 301 301 302 303 305 306 308 308 307 307 305 302 300 299 298 298 297 297 297 298 298 298 297 295 292 289 283 274 268 269 272 273 274 278 281 282 282
276 275 273 274 270 262 265 259 254 261 253 240 249 261 274 295 307 304 299 291 285 288 284 275 273 273 274 278 286 292 295 297 300 303 305 306 306 306 304 302 302 301 300 300 302 302 301 302 302 303 304 307 309 310 312 311 309 307 305 303 301 300 299 298 297 297 297 297 297 296 294 291 287 283 278 274 268 263 263 265 266 270 273 273 273
271 269 266 269 265 252 249 245 249 261 257 238 233 247 246 248 266 283 297 299 292 288 281 273 273 274 279 287 293 295 296 297 300 303 304 305 305 304 303 301 301 302 302 303 304 304 304 304 305 305 306 309 312 314 316 316 313 310 307 305 303 302 301 300 299 298 297 297 296 294 292 288 282 277 274 272 270 264 259 259 262 267 270 269 265
266 264 261 261 256 250 246 243 253 269 273 256 239 239 234 234 235 246 279 294 293 287 276 268 269 275 285 292 295 294 293 295 299 302 303 303 304 303 301 300 301 302 303 304 305 305 305 305 305 305 307 309 312 315 318 319 316 313 310 308 305 304 303 301 301 300 299 298 296 293 290 286 279 274 270 270 270 267 261 256 257 264 270 269 265
258 259 259 258 255 254 246 241 252 265 269 264 249 240 236 235 225 219 233 242 260 270 264 264 268 278 286 290 294 294 291 293 298 301 302 302 302 300 298 299 301 302 303 304 304 305 305 304 304 304 306 308 311 316 319 320 318 315 312 310 307 305 304 302 301 300 299 298 295 291 287 284 279 273 268 269 269 268 263 254 248 253 263 267 266
254 257 260 260 256 256 250 245 252 259 259 260 259 248 238 232 226 222 228 232 238 248 256 266 271 277 283 283 288 291 290 293 299 301 301 301 300 298 297 298 301 302 303 304 304 304 304 303 303 304 306 306 310 316 319 319 318 315 313 311 308 305 303 302 301 300 299 297 294 290 285 281 277 272 268 269 270 268 265 255 245 245 254 261 264
254 255 258 260 258 260 256 246 246 250 250 254 262 258 241 228 227 229 236 247 246 245 256 268 270 276 279 279 284 290 293 296 300 302 301 300 298 296 296 298 301 302 303 304 304 304 304 302 302 305 306 306 310 315 317 318 318 315 313 311 308 305 303 301 300 299 298 296 293 289 285 281 276 271 267 267 268 268 266 258 248 243 244 250 258
251 251 255 258 259 263 257 243 241 244 246 251 260 265 249 230 223 219 221 239 246 250 259 266 270 276 278 281 288 292 296 299 302 303 301 299 297 296 297 299 301 302 303 303 303 304 303 302 303 306 307 308 311 314 316 318 317 315 313 311 308 305 303 301 300 299 298 296 292 288 283 280 276 272 269 267 267 266 264 260 252 244 239 241 249
250 249 251 254 255 262 257 240 236 237 242 249 255 263 252 234 225 218 218 233 247 254 259 262 268 273 276 285 292 294 297 302 303 302 300 298 297 297 299 300 302 303 303 303 303 303 302 302 303 306 308 310 313 315 316 317 316 314 312 310 308 305 302 300 299 298 297 295 291 287 282 278 274 272 269 267 266 265 265 261 254 247 241 239 241
252 248 248 251 251 257 256 240 232 234 241 248 252 257 248 233 226 223 225 236 248 253 256 260 265 271 279 288 292 295 299 302 302 300 299 298 297 298 300 301 302 302 302 302 302 303 303 303 304 306 309 312 315 316 317 316 315 313 311 309 307 304 301 298 297 296 295 294 291 287 283 278 274 271 268 266 264 264 265 262 256 248 243 242 241
251 247 244 247 246 250 252 239 233 236 241 245 248 254 247 232 225 227 233 240 247 252 255 259 264 273 283 289 292 295 299 299 299 299 299 299 299 300 301 301 301 301 301 301 301 302 302 303 305 308 311 313 314 315 316 315 313 311 310 308 305 302 299 296 295 294 292 291 290 286 282 278 275 271 268 266 264 263 263 262 258 251 243 242 244
249 244 240 241 241 244 244 236 234 238 241 242 247 255 249 233 226 231 237 241 248 253 256 260 266 275 283 287 293 296 297 298 298 299 299 299 300 300 301 300 300 300 300 301 301 302 303 305 307 310 312 313 314 315 314 314 312 310 308 306 303 300 298 295 293 291 290 288 286 285 281 277 274 271 268 265 262 261 262 261 260 255 247 242 242
247 242 240 240 241 242 238 232 233 238 240 242 250 257 247 232 230 236 241 243 248 253 258 265 271 277 283 288 293 295 295 297 298 299 299 299 300 299 299 299 299 300 300 301 302 303 305 308 310 311 313 313 314 314 313 313 311 310 308 305 302 299 296 294 292 290 289 286 282 280 279 276 272 269 268 265 261 259 259 259 259 257 252 245 242
246 241 239 239 240 240 235 231 235 240 243 245 249 252 241 232 236 242 245 246 250 256 263 269 275 281 286 289 292 293 295 297 297 298 299 299 298 298 298 298 298 299 300 301 303 305 308 310 311 312 312 313 313 313 312 312 311 309 307 305 302 299 295 293 291 289 289 287 283 278 274 273 271 269 266 263 261 259 257 256 257 257 255 251 245
246 239 238 238 239 238 235 234 239 244 248 247 246 245 238 238 245 250 252 254 256 262 268 273 278 283 286 288 291 293 295 296 297 298 297 297 297 297 297 298 299 300 301 303 305 307 309 310 311 312 312 312 312 311 311 310 309 308 307 305 302 300 296 293 291 289 287 286 285 282 275 270 267 267 265 263 260 257 257 256 255 255 254 253 249
246 239 236 237 238 238 238 239 242 247 250 249 244 240 240 244 250 253 256 258 261 266 271 276 280 283 285 288 291 293 294 295 296 296 296 297 296 297 298 299 300 301 303 305 306 308 309 310 311 311 311 311 311 310 310 309 308 307 306 304 302 300 298 295 292 289 286 283 282 282 281 275 268 264 261 261 260 257 255 255 255 253 252 252 248
245 240 236 237 238 239 241 245 247 249 250 250 247 243 243 246 249 252 258 262 266 270 274 278 281 283 286 288 291 292 293 294 294 295 296 296 296 297 299 300 301 302 304 305 307 308 309 310 310 311 311 310 310 309 309 308 307 305 304 303 302 300 299 297 294 290 287 282 279 278 279 278 275 269 261 257 257 256 255 253 254 253 251 250 246
245 241 237 237 238 239 241 247 251 250 248 251 252 250 249 248 249 254 261 267 272 275 278 281 283 285 287 289 291 292 292 293 294 295 295 295 296 297 299 300 301 303 304 305 307 308 309 310 310 310 310 309 309 309 308 307 306 304 303 302 300 299 298 297 295 293 289 285 281 277 275 275 274 273 269 262 256 254 253 252 252 252 251 250 246
Height
10886 10885 10885 10885 10885 10885 10883 10883 10883 10883 10882 10881 10880 10879 10878 10876 10873 10872 10870 10867 10865 10863 10862 10861 10859 10858 10857 10856 10856 10855 10855 10855 10855 10855 10855 10855 10855 10854 10854 10854 10853 10853 10853 10852 10852 10852 10851 10851 10850 10849 10848 10847 10846 10845 10844 10843 10842 10841 10840 10838 10837 10836 10834 10833 10831 10830 10828 10826 10825 10824 10822 10821 10820 10819 10817 10816 10814 10813 10811 10809 10807 10806 10804 10802 10800
10884 10883 10883 10884 10884 10883 10882 10882 10882 10881 10880 10879 10878 10877 10875 10873 10871 10869 10867 10865 10863 10861 10860 10859 10857 10856 10855 10854 10854 10853 10854 10853 10853 10853 10853 10853 10853 10852 10852 10852 10851 10851 10851 10851 10850 10850 10849 10849 10848 10847 10846 10845 10845 10844 10842 10841 10840 10839 10838 10836 10835 10834 10832 10831 10829 10827 10826 10824 10823 10821 10820 10819 10817 10816 10815 10813 10812 10810 10808 10806 10804 10802 10800 10798 10796
10881 10881 10881 10882 10882 10881 10880 10880 10881 10880 10878 10877 10876 10874 10873 10871 10869 10867 10865 10863 10861 10859 10858 10857 10855 10854 10853 10853 10852 10852 10852 10852 10852 10852 10852 10851 10851 10851 10850 10850 10849 10849 10849 10848 10848 10848 10847 10847 10846 10845 10844 10844 10843 10842 10841 10840 10838 10837 10836 10834 10833 10832 10830 10829 10827 10825 10824 10822 10820 10819 10818 10816 10815 10814 10812 10811 10809 10807 10805 10803 10801 10798 10796 10794 10792
10879 10879 10879 10880 10880 10879 10878 10879 10879 10877 10876 10874 10873 10872 10870 10868 10867 10865 10863 10861 10859 10857 10856 10855 10853 10852 10852 10851 10851 10850 10850 10850 10850 10850 10850 10850 10849 10849 10849 10848 10848 10847 10847 10846 10846 10845 10845 10845 10844 10843 10843 10842 10841 10840 10839 10838 10837 10835 10834 10832 10831 10830 10828 10827 10825 10823 10821 10820 10818 10817 10815 10814 10813 10811 10810 10808 10806 10804 10802 10800 10797 10795 10792 10790 10787
10877 10877 10878 10878 10877 10876 10876 10877 10877 10875 10873 10872 10871 10869 10868 10866 10865 10863 10861 10859 10857 10856 10854 10853 10852 10851 10850 10850 10849 10849 10849 10849 10848 10848 10848 10848 10848 10847 10847 10847 10846 10846 10845 10844 10844 10843 10843 10842 10842 10841 10841 10840 10839 10838 10837 10836 10835 10833 10832 10831 10829 10828 10826 10824 10823 10821 10819 10817 10816 10814 10813 10812 10810 10809 10807 10805 10803 10801 10799 10796 10794 10791 10788 10786 10783
10874 10875 10876 10875 10874 10874 10874 10875 10874 10873 10871 10869 10868 10867 10865 10864 10862 10861 10859 10857 10855 10854 10852 10851 10850 10849 10849 10848 10848 10848 10848 10847 10847 10847 10846 10846 10846 10845 10845 10845 10845 10844 10843 10842 10842 10841 10841 10840 10840 10839 10839 10838 10837 10836 10835 10834 10833 10831 10830 10829 10827 10826 10824 10822 10820 10818 10816 10815 10813 10812 10811 10809 10808 10806 10805 10803 10800 10798 10795 10793 10790 10787 10784 10782 10779
10872 10873 10874 10873 10871 10871 10872 10872 10871 10870 10868 10867 10866 10865 10863 10862 10860 10858 10857 10855 10854 10852 10851 10849 10848 10848 10847 10847 10847 10847 10846 10846 10845 10845 10845 10844 10844 10844 10843 10843 10843 10842 10841 10840 10840 10839 10838 10838 10838 10837 10836 10836 10835 10834 10833 10832 10831 10829 10828 10826 10825 10823 10822 10820 10818 10816 10814 10813 10811 10810 10809 10807 10806 10804 10802 10800 10798 10795 10792 10789 10786 10784 10781 10778 10776
10870 10871 10873 10871 10870 10869 10869 10869 10869 10868 10866 10865 10864 10863 10861 10860 10858 10856 10855 10853 10852 10850 10849 10847 10846 10846 10846 10845 10845 10845 10845 10844 10844 10844 10843 10843 10842 10842 10842 10841 10840 10840 10839 10839 10838 10837 10836 10836 10836 10835 10834 10833 10832 10832 10831 10830 10829 10827 10826 10824 10823 10821 10819 10817 10815 10813 10812 10810 10809 10808 10806 10805 10803 10802 10800 10798 10795 10792 10789 10786 10783 10780 10777 10774 10772
10868 10870 10871 10869 10869 10867 10867 10867 10866 10865 10864 10863 10862 10861 10859 10858 10856 10854 10853 10852 10850 10849 10847 10845 10845 10844 10844 10844 10844 10843 10843 10843 10842 10842 10842 10841 10841 10840 10840 10839 10838 10838 10837 10837 10836 10835 10834 10834 10833 10833 10832 10831 10830 10829 10829 10828 10826 10825 10823 10822 10821 10819 10817 10815 10813 10811 10810 10808 10807 10805 10804 10802 10801 10799 10797 10795 10792 10789 10786 10783 10780 10776 10773 10771 10768
10866 10869 10869 10867 10867 10866 10865 10864 10864 10863 10862 10861 10860 10859 10857 10856 10854 10852 10851 10850 10848 10847 10845 10844 10843 10843 10842 10842 10842 10842 10841 10841 10840 10840 10840 10839 10839 10838 10837 10837 10836 10836 10835 10834 10834 10833 10832 10832 10831 10831 10830 10829 10828 10827 10826 10825 10824 10823 10821 10820 10819 10817 10815 10813 10811 10809 10808 10806 10804 10803 10801 10800 10798 10796 10794 10791 10788 10785 10783 10779 10776 10773 10770 10767 10765
10864 10866 10866 10865 10865 10864 10863 10862 10862 10861 10860 10859 10858 10857 10855 10854 10852 10850 10849 10848 10846 10845 10844 10842 10841 10841 10840 10840 10840 10840 10840 10839 10839 10838 10838 10837 10837 10836 10835 10835 10834 10834 10833 10832 10832 10831 10830 10830 10829 10828 10828 10827 10826 10825 10824 10823 10822 10820 10819 10818 10816 10815 10813 10811 10809 10807 10805 10804 10802 10800 10799 10797 10796 10794 10791 10788 10785 10782 10779 10776 10773 10769 10766 10763 10761
10862 10864 10863 10863 10863 10863 10861 10861 10860 10859 10858 10857 10856 10854 10853 10852 10850 10848 10847 10846 10845 10843 10842 10841 10840 10839 10838 10838 10838 10838 10838 10838 10837 10836 10836 10835 10835 10834 10833 10833 10832 10832 10831 10830 10830 10829 10828 10827 10827 10826 10825 10825 10824 10823 10822 10820 10819 10818 10817 10816 10814 10813 10811 10809 10807 10805 10803 10802 10800 10798 10797 10795 10793 10790 10788 10785 10782 10779 10776 10772 10769 10765 10762 10760 10758
10859 10861 10861 10862 10861 10861 10860 10859 10858 10857 10855 10854 10853 10852 10851 10850 10848 10846 10845 10844 10843 10842 10840 10839 10838 10837 10837 10836 10836 10836 10836 10836 10835 10834 10834 10833 10833 10832 10831 10830 10830 10829 10829 10828 10827 10826 10826 10825 10824 10824 10823 10822 10821 10820 10819 10818 10817 10816 10815 10813 10812 10810 10809 10807 10805 10803 10801 10799 10797 10796 10794 10792 10790 10787 10785 10782 10779 10776 10772 10769 10765 10762 10759 10757 10755
10857 10858 10859 10860 10859 10858 10858 10857 10856 10855 10853 10852 10851 10850 10849 10847 10846 10845 10844 10843 10841 10840 10839 10838 10837 10836 10835 10834 10834 10834 10834 10833 10833 10833 10832 10831 10830 10830 10829 10828 10827 10827 10827 10826 10825 10824 10823 10822 10821 10821 10820 10819 10818 10817 10816 10815 10814 10813 10812 10811 10810 10808 10806 10804 10802 10800 10799 10797 10795 10794 10792 10789 10787 10784 10781 10779 10776 10772 10769 10765 10761 10758 10756 10754 10753
10855 10856 10856 10857 10856 10856 10855 10855 10853 10852 10851 10849 10849 10848 10847 10846 10844 10843 10842 10841 10840 10839 10838 10837 10835 10834 10833 10832 10832 10831 10831 10831 10831 10830 10829 10829 10828 10828 10827 10826 10825 10824 10824 10823 10822 10821 10820 10820 10819 10818 10817 10816 10815 10814 10813 10813 10812 10811 10810 10809 10807 10806 10804 10802 10800 10798 10796 10795 10793 10791 10789 10786 10783 10781 10778 10775 10772 10769 10765 10761 10758 10755 10752 10751 10750
10854 10853 10854 10854 10853 10853 10852 10852 10850 10849 10848 10847 10847 10846 10845 10844 10842 10841 10840 10840 10839 10838 10836 10835 10834 10832 10831 10830 10829 10829 10829 10829 10828 10828 10827 10827 10826 10826 10825 10824 10822 10821 10821 10820 10819 10818 10818 10817 10816 10815 10814 10813 10812 10811 10811 10810 10809 10808 10807 10806 10805 10803 10801 10799 10797 10796 10794 10793 10791 10788 10786 10783 10780 10777 10774 10772 10769 10765 10761 10757 10754 10751 10749 10748 10747
10851 10851 10851 10851 10850 10850 10850 10849 10847 10846 10846 10845 10845 10844 10843 10841 10840 10839 10839 10838 10837 10836 10834 10833 10831 10830 10829 10828 10827 10827 10826 10826 10826 10826 10825 10825 10824 10823 10823 10822 10820 10819 10818 10817 10816 10815 10815 10814 10813 10812 10811 10810 10809 10809 10808 10807 10806 10805 10804 10803 10802 10800 10798 10797 10795 10793 10792 10790 10788 10785 10782 10779 10776 10773 10770 10767 10764 10761 10758 10754 10751 10748 10747 10746 10745
10848 10848 10848 10848 10848 10847 10846 10845 10844 10844 10843 10843 10842 10841 10840 10839 10838 10837 10837 10836 10835 10834 10832 10831 10829 10828 10827 10826 10825 10824 10824 10824 10824 10823 10823 10822 10822 10821 10820 10820 10818 10816 10814 10814 10813 10812 10811 10811 10810 10809 10808 10807 10806 10806 10805 10804 10803 10803 10801 10800 10799 10797 10795 10794 10792 10790 10789 10786 10784 10781 10778 10776 10773 10770 10766 10763 10760 10757 10754 10750 10747 10745 10744 10743 10742
10845 10845 10845 10845 10845 10844 10843 10842 10841 10841 10841 10840 10839 10838 10837 10836 10836 10835 10834 10834 10833 10832 10830 10828 10827 10826 10825 10824 10823 10822 10822 10821 10821 10820 10820 10820 10819 10819 10818 10817 10816 10814 10812 10810 10810 10809 10808 10807 10807 10806 10805 10804 10804 10803 10802 10802 10801 10800 10798 10797 10796 10794 10792 10791 10789 10787 10785 10783 10780 10777 10775 10772 10769 10766 10762 10759 10756 10753 10750 10746 10744 10742 10741 10740 10739
10842 10841 10842 10843 10842 10841 10840 10839 10838 10838 10838 10837 10836 10835 10834 10834 10833 10832 10832 10832 10831 10830 10828 10826 10825 10824 10823 10822 10820 10820 10820 10819 10819 10818 10818 10817 10817 10816 10816 10815 10814 10812 10810 10808 10806 10806 10805 10804 10804 10803 10802 10801 10801 10800 10800 10799 10797 10797 10795 10794 10793 10791 10789 10787 10786 10783 10781 10779 10776 10774 10771 10768 10765 10762 10759 10755 10751 10749 10746 10743 10740 10738 10738 10737 10735
10839 10838 10839 10839 10839 10838 10837 10836 10835 10835 10835 10834 10833 10832 10831 10831 10831 10830 10830 10830 10829 10827 10826 10824 10823 10822 10821 10819 10818 10818 10818 10817 10816 10815 10815 10815 10815 10814 10813 10813 10812 10811 10809 10807 10804 10803 10802 10801 10801 10800 10799 10799 10798 10797 10796 10795 10794 10793 10792 10791 10790 10788 10786 10784 10782 10780 10777 10775 10773 10770 10767 10765 10761 10758 10755 10751 10748 10745 10742 10739 10737 10735 10735 10734 10733
10836 10836 10837 10836 10835 10834 10833 10832 10832 10832 10832 10831 10830 10830 10829 10828 10828 10828 10828 10827 10826 10825 10823 10822 10821 10820 10818 10817 10816 10816 10815 10814 10814 10813 10813 10813 10812 10811 10811 10811 10810 10809 10807 10806 10803 10801 10800 10798 10798 10797 10796 10796 10795 10794 10793 10792 10791 10790 10789 10788 10786 10785 10783 10781 10779 10776 10774 10772 10769 10766 10763 10761 10758 10755 10751 10748 10744 10741 10739 10736 10734 10732 10732 10731 10730
10833 10833 10834 10833 10832 10831 10830 10829 10828 10829 10829 10829 10828 10827 10826 10825 10825 10825 10825 10825 10824 10822 10821 10820 10819 10818 10816 10815 10814 10814 10813 10811 10811 10811 10811 10810 10809 10809 10809 10809 10808 10807 10806 10804 10802 10800 10798 10796 10795 10794 10793 10793 10792 10791 10790 10789 10788 10787 10786 10784 10783 10781 10779 10777 10775 10773 10770 10768 10766 10763 10759 10757 10754 10751 10748 10745 10741 10738 10735 10733 10731 10730 10729 10728 10728
10830 10830 10831 10830 10829 10828 10828 10826 10826 10826 10826 10826 10825 10824 10823 10823 10823 10822 10822 10822 10821 10820 10818 10817 10817 10815 10813 10812 10812 10811 10810 10809 10809 10809 10809 10807 10807 10807 10807 10807 10806 10805 10804 10802 10801 10799 10797 10795 10793 10791 10790 10789 10789 10788 10787 10786 10785 10784 10783 10781 10779 10778 10776 10774 10772 10770 10767 10764 10762 10759 10756 10753 10750 10747 10745 10741 10738 10735 10733 10730 10729 10727 10726 10726 10725
10826 10827 10827 10827 10827 10826 10825 10824 10824 10823 10823 10823 10822 10821 10820 10820 10820 10819 10819 10819 10818 10817 10816 10815 10814 10812 10811 10810 10810 10809 10808 10807 10807 10807 10806 10805 10805 10805 10805 10804 10803 10802 10801 10800 10799 10797 10796 10794 10792 10790 10788 10787 10786 10785 10784 10783 10782 10781 10779 10778 10776 10774 10773 10771 10769 10767 10764 10761 10759 10756 10753 10750 10747 10744 10741 10738 10735 10732 10730 10728 10726 10725 10724 10724 10723
10823 10823 10824 10825 10825 10824 10823 10823 10822 10821 10820 10820 10819 10818 10817 10817 10817 10816 10816 10815 10814 10813 10812 10812 10811 10809 10808 10808 10807 10806 10806 10805 10804 10804 10804 10803 10803 10803 10802 10801 10801 10800 10798 10797 10795 10794 10793 10792 10790 10789 10787 10785 10784 10783 10781 10780 10778 10777 10776 10774 10773 10771 10769 10768 10766 10763 10761 10758 10755 10753 10750 10747 10744 10741 10738 10735 10733 10730 10728 10726 10724 10723 10722 10722 10721
10820 10820 10821 10822 10822 10821 10821 10820 10820 10819 10818 10817 10816 10814 10814 10813 10813 10812 10811 10811 10810 10809 10809 10808 10808 10806 10805 10805 10804 10804 10803 10803 10802 10802 10802 10801 10801 10801 10799 10798 10798 10796 10795 10794 10793 10791 10790 10789 10788 10787 10786 10784 10782 10780 10779 10777 10775 10774 10772 10771 10769 10768 10766 10764 10762 10759 10757 10754 10751 10749 10746 10744 10741 10739 10736 10733 10730 10728 10726 10724 10722 10721 10720 10720 10719
10818 10818 10819 10819 10819 10819 10819 10818 10817 10816 10815 10814 10812 10811 10810 10810 10809 10808 10807 10806 10806 10805 10805 10805 10805 10803 10802 10801 10801 10801 10800 10800 10800 10799 10798 10798 10799 10798 10796 10795 10794 10793 10791 10791 10790 10789 10787 10786 10785 10784 10784 10782 10780 10778 10776 10775 10773 10771 10769 10767 10765 10764 10762 10760 10758 10755 10753 10750 10747 10745 10743 10740 10738 10736 10734 10731 10728 10726 10724 10722 10720 10719 10718 10718 10718
10815 10815 10816 10816 10816 10816 10816 10815 10814 10814 10812 10811 10810 10808 10807 10806 10805 10804 10802 10802 10801 10801 10801 10802 10802 10800 10799 10798 10799 10798 10798 10798 10798 10796 10795 10795 10795 10795 10794 10793 10792 10790 10789 10788 10787 10785 10784 10783 10781 10780 10780 10778 10777 10775 10774 10773 10771 10769 10767 10764 10762 10760 10758 10755 10753 10751 10749 10746 10743 10741 10739 10738 10735 10733 10732 10729 10726 10724 10722 10720 10718 10717 10717 10716 10715
10812 10812 10813 10813 10814 10814 10814 10813 10812 10811 10809 10808 10807 10805 10804 10802 10801 10800 10798 10798 10797 10797 10797 10798 10798 10797 10797 10796 10796 10796 10796 10796 10796 10795 10793 10792 10792 10792 10792 10790 10788 10787 10786 10784 10783 10782 10780 10779 10777 10776 10775 10774 10773 10771 10770 10769 10767 10766 10764 10761 10759 10757 10754 10752 10749 10747 10745 10742 10739 10736 10736 10734 10731 10730 10729 10727 10725 10722 10719 10718 10717 10715 10715 10714 10713
10808 10809 10810 10811 10812 10812 10811 10810 10809 10808 10807 10805 10804 10802 10800 10798 10797 10796 10795 10795 10794 10794 10794 10794 10795 10794 10794 10793 10793 10793 10793 10793 10793 10792 10791 10790 10789 10788 10787 10786 10783 10782 10782 10781 10779 10778 10776 10775 10773 10772 10771 10770 10769 10767 10766 10765 10763 10762 10759 10757 10754 10752 10749 10747 10744 10742 10740 10738 10735 10732 10731 10730 10727 10726 10725 10724 10723 10720 10716 10715 10715 10714 10713 10712 10712
10806 10806 10807 10809 10809 10810 10809 10808 10807 10806 10804 10803 10801 10798 10796 10795 10795 10794 10793 10792 10791 10791 10791 10791 10791 10791 10791 10791 10791 10790 10790 10790 10789 10789 10789 10788 10787 10785 10784 10782 10780 10779 10778 10776 10774 10772 10772 10771 10769 10768 10766 10765 10764 10763 10762 10760 10758 10757 10755 10752 10750 10747 10744 10741 10739 10737 10735 10733 10731 10728 10726 10725 10723 10722 10721 10720 10719 10716 10713 10713 10712 10712 10711 10710 10710
10804 10803 10804 10804 10805 10806 10806 10804 10803 10803 10802 10801 10801 10798 10795 10793 10793 10792 10791 10790 10789 10789 10788 10788 10788 10788 10788 10788 10788 10788 10787 10787 10786 10785 10785 10784 10783 10783 10782 10780 10779 10778 10776 10773 10771 10769 10767 10767 10765 10764 10763 10761 10760 10759 10758 10756 10754 10752 10749 10747 10745 10742 10740 10737 10734 10732 10730 10728 10726 10724 10722 10719 10717 10718 10717 10715 10714 10712 10710 10710 10709 10709 10709 10708 10708
10800 10800 10800 10799 10800 10802 10801 10799 10798 10799 10800 10802 10803 10800 10796 10795 10794 10792 10789 10787 10787 10786 10786 10785 10785 10784 10784 10784 10785 10785 10785 10784 10783 10782 10781 10781 10780 10779 10779 10778 10776 10777 10775 10772 10771 10769 10766 10764 10763 10761 10759 10758 10757 10755 10754 10752 10750 10747 10744 10742 10739 10737 10734 10732 10729 10727 10725 10722 10720 10718 10716 10714 10712 10712 10711 10709 10709 10708 10707 10706 10706 10706 10706 10706 10706
10796 10795 10795 10794 10796 10796 10794 10791 10790 10791 10794 10797 10798 10796 10795 10796 10795 10791 10786 10784 10784 10784 10783 10782 10781 10781 10781 10781 10781 10781 10781 10781 10780 10779 10778 10777 10776 10775 10775 10774 10773 10772 10772 10769 10767 10766 10764 10761 10760 10758 10756 10754 10753 10752 10750 10748 10746 10743 10740 10737 10734 10731 10729 10726 10723 10721 10719 10717 10715 10713 10711 10710 10707 10705 10705 10704 10704 10704 10703 10703 10703 10703 10702 10702 10702
10789 10789 10789 10791 10791 10790 10787 10786 10787 10788 10790 10792 10793 10792 10791 10791 10791 10788 10783 10782 10783 10782 10781 10779 10778 10778 10778 10778 10778 10778 10778 10777 10777 10776 10775 10774 10773 10772 10771 10770 10769 10768 10766 10765 10763 10761 10759 10757 10756 10754 10753 10751 10750 10748 10746 10744 10742 10739 10736 10733 10729 10726 10723 10720 10718 10716 10714 10712 10709 10707 10705 10705 10703 10700 10699 10699 10699 10699 10699 10699 10699 10699 10699 10699 10698
10782 10783 10783 10786 10786 10785 10786 10786 10787 10787 10788 10790 10791 10790 10789 10787 10785 10783 10782 10783 10785 10783 10778 10775 10775 10775 10775 10775 10775 10775 10775 10774 10773 10773 10772 10771 10770 10769 10768 10766 10765 10764 10763 10761 10759 10757 10756 10754 10752 10751 10749 10748 10746 10744 10742 10740 10737 10734 10731 10728 10724 10721 10718 10715 10713 10711 10709 10707 10704 10701 10699 10698 10698 10697 10695 10694 10694 10695 10695 10695 10695 10695 10696 10695 10695
10779 10779 10779 10781 10782 10782 10784 10784 10784 10783 10784 10786 10787 10786 10785 10785 10782 10780 10781 10783 10785 10783 10775 10771 10772 10771 10772 10772 10772 10772 10771 10771 10770 10769 10768 10768 10767 10766 10765 10763 10762 10761 10760 10758 10756 10754 10753 10751 10750 10748 10746 10744 10742 10740 10738 10735 10732 10728 10725 10722 10719 10715 10712 10710 10707 10706 10704 10702 10700 10697 10694 10693 10692 10692 10691 10690 10689 10690 10691 10691 10691 10691 10692 10692 10692
10776 10777 10777 10779 10779 10779 10780 10781 10781 10781 10781 10782 10783 10782 10781 10781 10780 10780 10779 10779 10781 10779 10772 10769 10768 10768 10768 10768 10768 10767 10767 10767 10766 10765 10764 10763 10763 10762 10761 10760 10759 10758 10756 10755 10753 10751 10750 10748 10746 10745 10743 10741 10739 10736 10733 10730 10727 10724 10721 10718 10714 10710 10707 10705 10702 10700 10699 10697 10695 10693 10691 10689 10688 10688 10688 10687 10685 10685 10686 10686 10687 10687 10688 10689 10689
10771 10774 10775 10776 10777 10776 10776 10777 10778 10778 10777 10778 10778 10778 10778 10777 10777 10777 10776 10776 10776 10772 10768 10766 10765 10764 10764 10764 10763 10763 10762 10762 10762 10761 10760 10759 10758 10758 10757 10756 10755 10754 10752 10751 10749 10747 10746 10744 10743 10741 10739 10737 10735 10732 10728 10726 10722 10719 10716 10713 10710 10706 10702 10700 10698 10696 10694 10692 10690 10689 10687 10685 10684 10684 10683 10683 10682 10681 10680 10681 10682 10683 10684 10685 10686
10766 10769 10771 10773 10774 10773 10772 10773 10774 10774 10773 10773 10773 10774 10775 10773 10772 10773 10773 10774 10771 10765 10763 10761 10760 10760 10760 10760 10759 10758 10757 10757 10756 10756 10755 10754 10754 10753 10752 10751 10750 10749 10747 10746 10745 10743 10741 10740 10738 10736 10734 10732 10730 10727 10723 10720 10717 10713 10710 10707 10705 10702 10698 10694 10692 10691 10689 10687 10686 10684 10682 10681 10680 10680 10679 10679 10678 10677 10676 10677 10678 10679 10680 10681 10682
10760 10764 10767 10769 10770 10769 10769 10770 10770 10768 10767 10768 10769 10771 10771 10769 10768 10768 10768 10767 10764 10760 10759 10758 10757 10757 10757 10756 10754 10753 10753 10752 10751 10751 10750 10749 10748 10747 10746 10746 10745 10744 10742 10740 10739 10738 10736 10734 10733 10730 10728 10726 10723 10720 10717 10714 10711 10708 10704 10701 10699 10696 10694 10689 10686 10685 10683 10682 10681 10679 10677 10677 10676 10675 10675 10674 10674 10672 10671 10672 10673 10674 10675 10676 10677
10756 10760 10762 10764 10765 10765 10765 10765 10764 10763 10763 10764 10765 10766 10767 10765 10763 10762 10762 10760 10757 10756 10756 10755 10754 10754 10753 10751 10750 10749 10748 10747 10746 10745 10744 10744 10743 10741 10741 10740 10739 10738 10736 10735 10733 10731 10730 10728 10726 10723 10721 10718 10716 10713 10709 10706 10704 10701 10698 10696 10693 10690 10688 10685 10681 10679 10678 10676 10675 10674 10672 10671 10671 10670 10669 10669 10669 10668 10667 10667 10668 10669 10669 10670 10671
10751 10754 10757 10758 10760 10760 10760 10760 10760 10759 10759 10760 10760 10761 10762 10761 10759 10757 10756 10754 10753 10752 10752 10751 10751 10749 10748 10746 10745 10744 10743 10742 10741 10740 10739 10738 10737 10736 10734 10734 10733 10732 10731 10729 10728 10726 10724 10722 10720 10717 10713 10710 10708 10706 10703 10700 10698 10695 10692 10689 10687 10684 10682 10680 10675 10673 10673 10671 10669 10669 10667 10666 10665 10664 10664 10664 10664 10663 10663 10662 10662 10663 10665 10666 10666
10746 10748 10751 10753 10754 10755 10756 10756 10755 10755 10755 10756 10755 10755 10757 10756 10754 10753 10750 10748 10748 10748 10748 10747 10746 10745 10743 10742 10740 10739 10738 10737 10735 10734 10733 10732 10731 10730 10729 10728 10727 10726 10725 10723 10722 10720 10718 10716 10714 10710 10707 10702 10699 10697 10695 10693 10691 10688 10686 10683 10680 10678 10676 10675 10671 10667 10666 10666 10664 10663 10662 10661 10659 10658 10658 10658 10658 10658 10657 10657 10657 10658 10659 10661 10662
10742 10743 10745 10748 10751 10752 10752 10752 10751 10750 10750 10751 10751 10751 10751 10751 10750 10748 10746 10744 10744 10744 10744 10743 10742 10741 10739 10737 10735 10733 10732 10731 10730 10729 10728 10727 10726 10725 10724 10723 10722 10720 10719 10717 10716 10714 10711 10709 10706 10702 10699 10695 10691 10687 10685 10683 10682 10679 10678 10676 10674 10672 10669 10667 10667 10662 10658 10658 10659 10658 10657 10656 10654 10653 10652 10652 10652 10652 10652 10652 10652 10653 10654 10655 10657
10739 10738 10740 10744 10746 10747 10748 10749 10748 10747 10746 10746 10747 10747 10746 10746 10745 10743 10741 10739 10740 10740 10739 10739 10737 10735 10733 10731 10730 10728 10727 10726 10725 10724 10722 10722 10721 10720 10719 10718 10716 10715 10713 10712 10710 10708 10705 10702 10699 10695 10691 10688 10684 10680 10676 10673 10671 10670 10668 10667 10665 10665 10663 10661 10660 10658 10653 10649 10650 10652 10652 10650 10649 10648 10647 10646 10646 10646 10646 10646 10647 10647 10649 10650 10652
10736 10736 10737 10739 10741 10742 10744 10745 10744 10743 10742 10742 10743 10743 10742 10741 10740 10739 10737 10737 10737 10736 10735 10734 10732 10730 10728 10726 10725 10723 10722 10720 10719 10718 10717 10716 10715 10714 10713 10712 10710 10708 10707 10705 10703 10701 10698 10695 10692 10688 10685 10681 10677 10673 10669 10665 10662 10660 10659 10658 10657 10656 10656 10655 10654 10653 10651 10646 10641 10642 10644 10644 10643 10642 10641 10640 10639 10639 10639 10640 10641 10642 10644 10645 10647
10732 10733 10733 10734 10735 10737 10739 10740 10740 10739 10738 10739 10739 10738 10737 10736 10736 10735 10734 10734 10733 10732 10730 10729 10727 10725 10723 10721 10720 10718 10717 10715 10714 10713 10711 10710 10709 10708 10706 10705 10703 10702 10700 10698 10696 10693 10690 10687 10684 10681 10677 10674 10670 10666 10662 10659 10655 10652 10650 10649 10648 10647 10647 10647 10647 10646 10646 10644 10639 10634 10634 10635 10635 10635 10636 10634 10633 10633 10633 10634 10634 10636 10639 10639 10641
10729 10729 10729 10730 10731 10732 10733 10734 10736 10735 10735 10735 10734 10733 10733 10732 10732 10731 10730 10730 10729 10727 10725 10723 10721 10720 10718 10716 10715 10714 10712 10711 10709 10707 10706 10705 10704 10702 10700 10699 10697 10695 10693 10691 10689 10686 10682 10679 10676 10673 10669 10666 10662 10658 10655 10652 10649 10646 10644 10641 10640 10639 10638 10638 10638 10638 10638 10639 10637 10632 10629 10627 10626 10625 10627 10628 10627 10626 10627 10627 10628 10630 10632 10632 10633
10724 10725 10726 10726 10726 10726 10728 10730 10731 10731 10730 10730 10729 10729 10729 10729 10728 10727 10725 10724 10723 10721 10719 10717 10716 10714 10713 10711 10710 10708 10707 10705 10704 10702 10701 10700 10699 10697 10695 10693 10691 10689 10686 10684 10681 10678 10675 10671 10668 10665 10661 10658 10654 10651 10647 10644 10642 10639 10637 10635 10633 10632 10630 10630 10629 10629 10630 10630 10630 10628 10625 10623 10620 10617 10617 10619 10620 10620 10620 10621 10622 10624 10625 10625 10625